Location: Home
(42.5358°N, 72.7383°W)
Time: 17:17:28
(UTC-05:00)

SR - Pass Details

Date: 09 December 2021
Orbit: 582 x 872 km, 66.7° (Epoch: 20 January)

Event Time Altitude Azimuth Distance (km) Brightness Sun altitude
Exits shadow 05:46:40 - 346° (NNW) 2,238 ? -14.6°
Reaches altitude 10° 05:47:33 10° 352° (N) 1,938 ? -14.5°
Maximum altitude 05:51:12 26° 50° (NE) 1,226 ? -13.9°
Drops below altitude 10° 05:55:00 10° 107° (ESE) 2,024 ? -13.2°
Sets 05:57:40 0° 120° (ESE) 2,978 ? -12.7°
